Showing default

KANOPUS-V 3, 43180

Orbit data source: Space-Track

KANOPUS-V 3, 43180 is a payload satellite owned by VNIIEM (CIS) in SSO that was launched on Thu, 01 Feb 2018 UTC via a SOYUZ-2-1A launch vehicle from the Vostochny Cosmodrome (VOSTO). Payload-class satellites include a variety of spacecraft equipped with specific instruments for various scientific and technological missions. These include communications satellites like Starlink; space stations such as the ISS; scientific satellites like the Hubble; Earth observation satellites from companies like Planet Labs, Umbra, and HawkEye 360; GPS; miniature CubeSats for education and research; and military/defense satellites.

Loading next visibility...
Identifier
43180, 2018-014A
Orbit
SSO
Last TLE update
6 hours ago
Origin
Manufacturer
VNIIEM
Mission
Operational Civil Imaging
Bus & Motor
KANOPUS, Unknown motor
Mass
490 kg wet, 490 kg dry
Launch date (UTC)
2018-02-01 (7 years ago)
Launch vehicle
SOYUZ-2-1A
Launch site
Vostochny Cosmodrome (VOSTO)
Object type
Payload
Rocket body
Debris
Shape & HBR
Box + 2 Pan, 6 m
Radar Cross Section
1.665 m², Large (>1 m²)

Expand to show TLE details & history

TLE from 6 hours ago
0 KANOPUS-V 3
1 43180U 18014A   25182.89996068  .00002331  00000-0  10264-3 0  9998
2 43180  97.3767  90.0419 0001847  92.9164 267.2284 15.22817913411401
Epoch: 2025-07-01T21:35Z
TLE epoch observation values (Epoch: 2025-07-01T21:35:56.602Z)
Latitude
-0.00005°
Longitude
-154.13272°
Altitude
500.502 km
Speed
7.614 km/s
True Right ascension
06h 00m 10s
True Declination
0° 00' 00"
Sunlit
Object was in daylight at epoch
Visualization orbit readout
Latitude
4.1397°
Longitude
-154.40781°
Altitude
499.943 km
Speed
7.615 km/s
Apparent Right ascension
05h 00m 12s
Apparent Declination
-17° 41' 39"
Sunlit
Object is in daylight
Visualization observer readout
Local Sidereal Time
15:36:50
Azimuth
314.939° NW
Elevation
-61.393°
Doppler factor
1
Orbital elements
Apogee altitude
495.576 km
Perigee altitude
493.037 km
Semi-major axis
6,872.443 km
Eccentricity
0.00018
Inclination
97.3767°
RAAN
90.0419°
Arg. of periapsis
92.9164°
True anomaly
Unknown
Mean anomaly
267.2284°
Eccentric anomaly
Unknown
Mean motion
3.80957 °/min
Orbital period
94.5 mins
BSTAR
0.00010264
Loading maneuver chart data...
Loading SW <> Apogee altitude chart data...
Loading historical data...
Loading historical data...
Loading historical data...
Loading historical data...
Loading historical data...
Loading historical data...
Loading historical data...

KANOPUS-V 3 Visibility forecast

Observer location: undefined°, undefined°

Span
Click to sort rows by Start time (UTC) header in descending order
Start Az.
Max El. time (UTC)
Max El. Az.
Max El.
End time (UTC)
End Az.
5 mins2025-07-02 06:03:31.321Z42.987° NE2025-07-02 06:06:31.321Z110.363° ESE23.458°2025-07-02 06:08:31.321Z149.185° SSE
5 mins2025-07-02 18:14:31.321Z199.991° SSW2025-07-02 18:16:31.321Z267.96° W34.988°2025-07-02 18:19:31.321Z333.031° NNW
|